Regional Weather Roundup
Issued by NWS

Home | Current Version | Previous Version | Graphics & Text | Print | Product List | Glossary On
Versions: 1 2 3 4 5 6 7 8 9 10 11 12 13 14 15 16 17 18 19 20 21 22 23 24 25 26 27 28 29 30 31 32 33 34 35 36 37 38 39 40 41 42 43 44 45 46 47 48 49 50
000
ASUS43 KDTX 182201
RWRMI
MICHIGAN HOURLY REGIONAL WEATHER ROUNDUP
NATIONAL WEATHER SERVICE DETROIT/PONTIAC MI
600 PM EDT FRI APR 18 2014

NOTE: "FAIR" INDICATES FEW OR NO CLOUDS BELOW 12,000 FEET WITH NO
SIGNIFICANT WEATHER AND/OR OBSTRUCTION TO VISIBILITY.

MIZ047>049-052>055-059>063-066>070-074>076-081>083-182300-
SOUTHEAST LOWER MICHIGAN

CITY           SKY/WX    TMP DP  RH WIND       PRES   REMARKS
ADRIAN         SUNNY     64  32  30 NW8       30.23S
ALMA           MOSUNNY   58  30  34 NW8G18    30.26S
ANN ARBOR      SUNNY     64  32  30 N10       30.23S
BAD AXE        PTSUNNY   44  34  66 E8        30.29S
CARO           PTSUNNY   58  36  44 CALM      30.25S
DETROIT CITY   SUNNY     55  39  54 E9        30.25F
DETROIT        MOSUNNY   59  44  57 E7        30.24S
FLINT          MOSUNNY   61  36  39 W13       30.24F
GROSSE ILE     MOSUNNY   55  45  67 NE10      30.23F
HILLSDALE      SUNNY     64  30  27 W12       30.23F
HOWELL         MOSUNNY   60  32  35 W6        30.23S

CITY           SKY/WX    TMP DP  RH WIND       PRES   REMARKS
JACKSON        MOSUNNY   63  34  33 NW9       30.23S
LAMBERTVILLE   MOSUNNY   68  36  30 W8G16     30.22S
LANSING        SUNNY     60  32  34 W14G22    30.26S
LAPEER         CLOUDY    57  36  44 NW8       30.24F
MASON          SUNNY     61  34  37 W13G18    30.24S
MONROE         MOSUNNY   59  45  58 E10       30.22S
MT. CLEMENS    MOSUNNY   51  39  63 E13       30.23F
PONTIAC        PTSUNNY   59  36  42 W9        30.23F
PORT HOPE        N/A     37  32  82 NE9       30.31R WCI  30
PORT HURON     SUNNY     45  32  61 NE12      30.28F
TRI CITIES     PTSUNNY   58  33  39 NW12G17   30.26S
TROY           CLOUDY    56  43  63 E7        30.25S
SAGINAW HB     PTSUNNY   55  36  47 CALM      30.25S
YPSILANTI      MOSUNNY   63  42  46 E6        30.23S
$$
MIZ043>046-050>051-056>058-064>065-071>073-077>080-182300-
SOUTHWEST LOWER MICHIGAN

CITY           SKY/WX    TMP DP  RH WIND       PRES   REMARKS
BATTLE CREEK   SUNNY     61  29  29 W15G21    30.26S
BENTON HARBOR  SUNNY     40  30  67 N13G22    30.34S WCI  32
BIG RAPIDS     SUNNY     52  23  33 N12       30.28S
COLDWATER      SUNNY     62  31  30 W12       30.24S
FREMONT        FAIR      51  24  36 N12       30.30S
HOLLAND        SUNNY     47  33  58 NW9       30.34R
GRAND RAPIDS   MOSUNNY   57  32  38 W16       30.29R
IONIA          FAIR      59  29  32 NW14G20   30.25S
KALAMAZOO      SUNNY     60  32  34 NW15G21   30.28R
LUDINGTON      SUNNY     39  26  59 N12G20    30.37S WCI  32
MARSHALL       SUNNY     61  34  36 W10       30.24S
MOUNT PLEASANT SUNNY     56  28  34 W9        30.26S
MUSKEGON       MOSUNNY   48  28  46 W9        30.32S
SOUTH HAVEN    SUNNY     40  30  66 N14G20    30.35R WCI  33
$$
MIZ016>042-182300-
NORTHERN LOWER MICHIGAN

CITY           SKY/WX    TMP DP  RH WIND       PRES   REMARKS
ALPENA         CLOUDY    44  26  49 NW14G20   30.32R
BEAVER ISLAND  CLOUDY    38  28  66 NW7       30.39R WCI  33
BELLAIRE       CLOUDY    40  26  56 NW7       30.37S
CADILLAC       SUNNY     43  27  54 NW13      30.32R
CHARLEVOIX     CLOUDY    39  29  66 W8        30.42R WCI  33
FRANKFORT      SUNNY     40  25  54 N8        30.38S WCI  35
GAYLORD        CLOUDY    35  23  61 NW9G17    30.34R WCI  28
GRAYLING       SUNNY     40  23  51 NW13      30.34R WCI  33
HARBOR SPRINGS CLOUDY    35  31  84 SW6       30.37R WCI  30
HOUGHTON LAKE  SUNNY     43  25  49 N15G21    30.31S
MANISTEE       SUNNY     41  25  52 N12       30.38R
OSCODA         SUNNY     40  31  69 NE10      30.31R WCI  34
PELLSTON       CLOUDY    38  27  64 NW13      30.37R WCI  30
ROGERS CITY    CLOUDY    39  28  64 NW16G23   30.35S WCI  31
TRAVERSE CITY  MOSUNNY   40  25  55 NE9       30.37S WCI  34
$$
MIZ007>008-015-182300-
EASTERN UPPER MICHIGAN

CITY           SKY/WX    TMP DP  RH WIND       PRES   REMARKS
KINROSS        CLOUDY    36  30  80 NW16      30.33F WCI  26
MACKINAC ISLAN CLOUDY    36  29  75 NW8G17    30.35R WCI  30
NEWBERRY       CLOUDY    35  28  73 NW15      30.36R WCI  26
S. S. MARIE    CLOUDY    35  29  78 NW8       30.34R WCI  29
$$
MIZ004>006-011>014-085-182300-
CENTRAL UPPER MICHIGAN

CITY           SKY/WX    TMP DP  RH WIND       PRES   REMARKS
MANISTIQUE     CLOUDY    37  28  70 NW8       30.38R WCI  31
ESCANABA       MOSUNNY   43  23  45 N8G17     30.38R
MENOMINEE      MOSUNNY   45  25  45 S5        30.36F
SAWYER-GWINN   PTSUNNY   36  28  75 NE7       30.37F WCI  30
$$
MIZ001>003-009>011-084-182300-
WESTERN UPPER MICHIGAN

CITY           SKY/WX    TMP DP  RH WIND       PRES   REMARKS
IRON MOUNTAIN  SUNNY     41  22  46 NE8       30.35S
HOUGHTON       SUNNY     35  22  58 NW8       30.38F WCI  29
COPPER HARBOR    N/A     35  28  75 N10       30.41F WCI  27
IRONWOOD       SUNNY     39  19  45 CALM      30.34S
$$

ABBREVIATIONS USED IN REMARKS
   TC - TEMPERATURE IN CELSIUS
  WCI - WIND CHILL INDEX
   HX - HEAT INDEX
  VSB - VISIBILITY




USA.gov is the U.S. government's official web portal to all federal, state and local government web resources and services.